Home   Weather   Nagasaki   Past weeks

Flag for Japan Past Weather in Nagasaki, Japan — Yesterday and Last 2 Weeks

Now
63 °F

Passing clouds.


Feels Like: 63 °F
Forecast: 60 / 71 °F
Wind: 3 mph from Southeast

Location: Nagasaki Airport

Current Time: Apr 24, 2017 at 10:22:38 pm

Latest Report: Apr 24, 2017 at 9:00 pm


Visibility: N/A

Pressure: 30.12 "Hg

Humidity: 73%

Dew Point: 54 °F

Location of NagasakiLocation

Past Weather in Nagasaki — Graph

°F

Nagasaki Temperature Yesterday

Maximum temperature yesterday: 72 °F (at 3:00 pm)
Minimum temperature yesterday: 50 °F (at 6:10 am)
Average temperature yesterday: 64 °F

High & Low Weather Summary for the Past Weeks

 TemperatureHumidityPressure
High79 °F (Apr 16, 12:00 pm)100% (Apr 10, 1:00 pm)30.15 "Hg (Apr 10, 1:00 pm)
Low46 °F (Apr 13, 6:10 am)20% (Apr 14, 1:00 pm)29.42 "Hg (Apr 17, 4:10 pm)
Average64 °F71%29.82 "Hg
* Reported Apr 9 9:00 pm — Apr 24 9:00 pm, Nagasaki, Weather by CustomWeather, © 2017

Note: Actual official high and low records may vary slightly from our data, if they occured in-between our weather recording intervals... More about our weather records

Advertising

Nagasaki Weather History for the Previous 24 Hours

Scroll right to see more
 ConditionsComfort  
Time TempWeatherWind HumidityBarometerVisibility
9:00 pm
Mon, Apr 24
63 °FPassing clouds.3 mph73%30.12 "HgN/A
8:00 pm66 °FClear.3 mph56%30.09 "Hg10 mi
7:00 pm66 °FClear.1 mph56%30.09 "Hg10 mi
6:00 pm68 °FPartly sunny.9 mph49%30.09 "HgN/A
5:00 pm68 °FPartly sunny.16 mph56%30.09 "HgN/A
4:24 pm72 °FPartly sunny.17 mph47%30.09 "HgN/A
4:00 pm75 °FPartly sunny.7 mph31%30.07 "HgN/A
3:00 pm75 °FPartly sunny.12 mph29%30.07 "HgN/A
2:00 pm75 °FPartly sunny.14 mph27%30.09 "HgN/A
1:00 pm73 °FPartly sunny.9 mph31%30.12 "HgN/A
12:00 pm72 °FPartly sunny.10 mph41%30.12 "HgN/A
11:00 am72 °FScattered clouds.12 mph50%30.15 "HgN/A
10:00 am68 °FPassing clouds.8 mph53%30.15 "HgN/A
9:00 am63 °FSunny.8 mph64%30.15 "Hg10 mi
8:00 am59 °FSunny.13 mph72%30.15 "Hg10 mi
7:00 am57 °FSunny.13 mph72%30.15 "Hg10 mi
6:10 am55 °FSunny.15 mph72%30.15 "Hg10 mi
Weather by CustomWeather, © 2017

See weather overviewHow to use our weather pages